Time,TemperatureF,DewpointF,PressureIn,WindDirection,WindDirectionDegrees,WindSpeedMPH,WindSpeedGustMPH,Humidity,HourlyPrecipIn,Conditions,Clouds,dailyrainin,SoftwareType,DateUTC
2013-07-28 00:14:00,50.1,49.0,29.99,SSE,158,0.0,-999.0,97,-99.99,,,0.00,weatherlink.com 1.10,2013-07-28 07:14:00,
2013-07-28 00:44:00,50.1,49.0,29.98,SSE,158,0.0,-999.0,97,-99.99,,,0.00,weatherlink.com 1.10,2013-07-28 07:44:00,
2013-07-28 00:59:00,50.0,49.0,29.98,SSE,158,0.0,-999.0,97,-99.99,,,0.00,weatherlink.com 1.10,2013-07-28 07:59:00,
2013-07-28 01:14:00,50.2,49.0,29.98,SSE,158,0.0,-999.0,97,-99.99,,,0.00,weatherlink.com 1.10,2013-07-28 08:14:00,
2013-07-28 01:32:00,50.3,50.0,29.98,SSE,158,0.0,-999.0,97,-99.99,,,0.00,weatherlink.com 1.10,2013-07-28 08:32:00,
2013-07-28 01:44:00,50.3,50.0,29.98,SSE,158,0.0,-999.0,97,-99.99,,,0.00,weatherlink.com 1.10,2013-07-28 08:44:00,
2013-07-28 01:59:00,50.4,50.0,29.98,SSE,158,0.0,-999.0,97,-99.99,,,0.00,weatherlink.com 1.10,2013-07-28 08:59:00,
2013-07-28 02:15:00,49.9,49.0,29.98,SSE,158,0.0,-999.0,96,-99.99,,,0.00,weatherlink.com 1.10,2013-07-28 09:15:00,
2013-07-28 02:31:00,49.9,49.0,29.98,SSE,158,0.0,-999.0,97,-99.99,,,0.00,weatherlink.com 1.10,2013-07-28 09:31:00,
2013-07-28 02:44:00,49.8,49.0,29.98,SSE,158,0.0,-999.0,97,-99.99,,,0.00,weatherlink.com 1.10,2013-07-28 09:44:00,
2013-07-28 03:00:00,49.7,49.0,29.97,SSE,158,0.0,-999.0,97,-99.99,,,0.00,weatherlink.com 1.10,2013-07-28 10:00:00,
2013-07-28 03:15:00,49.5,49.0,29.97,SSE,158,1.0,-999.0,97,-99.99,,,0.00,weatherlink.com 1.10,2013-07-28 10:15:00,
2013-07-28 03:32:00,49.3,49.0,29.97,SSE,158,0.0,-999.0,97,-99.99,,,0.00,weatherlink.com 1.10,2013-07-28 10:32:00,
2013-07-28 03:45:00,48.8,48.0,29.97,SW,218,0.0,-999.0,97,-99.99,,,0.00,weatherlink.com 1.10,2013-07-28 10:45:00,
2013-07-28 04:00:00,48.9,48.0,29.97,SW,218,0.0,-999.0,97,-99.99,,,0.00,weatherlink.com 1.10,2013-07-28 11:00:00,
2013-07-28 04:15:00,49.6,49.0,29.97,SW,218,0.0,-999.0,97,-99.99,,,0.00,weatherlink.com 1.10,2013-07-28 11:15:00,
2013-07-28 04:32:00,50.0,49.0,29.97,SW,214,0.0,-999.0,97,-99.99,,,0.00,weatherlink.com 1.10,2013-07-28 11:32:00,
2013-07-28 04:45:00,50.3,50.0,29.97,SW,219,0.0,-999.0,97,-99.99,,,0.00,weatherlink.com 1.10,2013-07-28 11:45:00,
2013-07-28 05:00:00,50.2,49.0,29.97,SW,220,2.0,-999.0,97,-99.99,,,0.01,weatherlink.com 1.10,2013-07-28 12:00:00,
2013-07-28 05:15:00,50.2,49.0,29.97,SW,220,0.0,-999.0,97,-99.99,,,0.01,weatherlink.com 1.10,2013-07-28 12:15:00,
2013-07-28 05:32:00,49.5,48.0,29.96,SW,220,0.0,-999.0,96,-99.99,,,0.01,weatherlink.com 1.10,2013-07-28 12:32:00,
2013-07-28 05:45:00,49.2,48.0,29.96,SW,220,0.0,-999.0,97,-99.99,,,0.01,weatherlink.com 1.10,2013-07-28 12:45:00,
2013-07-28 06:00:00,49.0,48.0,29.96,SW,220,0.0,-999.0,97,-99.99,,,0.01,weatherlink.com 1.10,2013-07-28 13:00:00,
2013-07-28 06:15:00,49.2,48.0,29.96,SW,220,2.0,-999.0,97,-99.99,,,0.01,weatherlink.com 1.10,2013-07-28 13:15:00,
2013-07-28 06:32:00,49.5,49.0,29.96,SW,226,4.0,-999.0,97,-99.99,,,0.01,weatherlink.com 1.10,2013-07-28 13:32:00,
2013-07-28 06:45:00,50.3,50.0,29.96,SW,235,0.0,-999.0,97,-99.99,,,0.01,weatherlink.com 1.10,2013-07-28 13:45:00,
2013-07-28 07:00:00,51.2,50.0,29.97,SW,235,0.0,-999.0,97,-99.99,,,0.01,weatherlink.com 1.10,2013-07-28 14:00:00,
2013-07-28 07:15:00,51.7,51.0,29.97,SW,235,0.0,-999.0,96,-99.99,,,0.01,weatherlink.com 1.10,2013-07-28 14:15:00,
2013-07-28 07:32:00,51.3,50.0,29.97,SW,235,0.0,-999.0,95,-99.99,,,0.01,weatherlink.com 1.10,2013-07-28 14:32:00,
2013-07-28 07:45:00,52.3,51.0,29.98,SW,235,0.0,-999.0,96,-99.99,,,0.01,weatherlink.com 1.10,2013-07-28 14:45:00,
2013-07-28 08:00:00,52.6,51.0,29.98,SW,235,0.0,-999.0,95,-99.99,,,0.01,weatherlink.com 1.10,2013-07-28 15:00:00,
2013-07-28 08:15:00,53.2,52.0,29.98,SW,235,0.0,-999.0,94,-99.99,,,0.01,weatherlink.com 1.10,2013-07-28 15:15:00,
2013-07-28 08:32:00,53.1,51.0,29.97,SW,235,0.0,-999.0,93,-99.99,,,0.01,weatherlink.com 1.10,2013-07-28 15:32:00,
2013-07-28 08:45:00,53.0,51.0,29.98,ESE,112,0.0,-999.0,92,-99.99,,,0.01,weatherlink.com 1.10,2013-07-28 15:45:00,
2013-07-28 09:00:00,51.4,49.0,29.98,ESE,107,2.0,-999.0,92,-99.99,,,0.01,weatherlink.com 1.10,2013-07-28 16:00:00,
2013-07-28 09:15:00,50.8,50.0,29.98,SSE,155,0.0,-999.0,95,-99.99,,,0.01,weatherlink.com 1.10,2013-07-28 16:15:00,
2013-07-28 09:32:00,51.3,50.0,29.98,SE,134,0.0,-999.0,96,-99.99,,,0.01,weatherlink.com 1.10,2013-07-28 16:32:00,
2013-07-28 09:45:00,50.7,50.0,29.98,SE,134,0.0,-999.0,96,-99.99,,,0.01,weatherlink.com 1.10,2013-07-28 16:45:00,
2013-07-28 10:00:00,51.4,50.0,29.98,SE,134,0.0,-999.0,96,-99.99,,,0.01,weatherlink.com 1.10,2013-07-28 17:00:00,
2013-07-28 10:15:00,52.3,51.0,29.98,SE,132,0.0,-999.0,96,-99.99,,,0.01,weatherlink.com 1.10,2013-07-28 17:15:00,
2013-07-28 10:32:00,51.9,51.0,29.98,ENE,74,1.0,-999.0,96,-99.99,,,0.01,weatherlink.com 1.10,2013-07-28 17:32:00,
2013-07-28 10:45:00,51.2,50.0,29.98,ESE,121,1.0,-999.0,96,-99.99,,,0.01,weatherlink.com 1.10,2013-07-28 17:45:00,
2013-07-28 11:00:00,51.3,51.0,29.97,SE,142,3.0,-999.0,97,-99.99,,,0.01,weatherlink.com 1.10,2013-07-28 18:00:00,
2013-07-28 11:16:00,53.3,53.0,29.97,SSE,167,1.0,-999.0,97,-99.99,,,0.01,weatherlink.com 1.10,2013-07-28 18:16:00,
2013-07-28 11:32:00,55.0,54.0,29.97,SSW,209,0.0,-999.0,96,-99.99,,,0.01,weatherlink.com 1.10,2013-07-28 18:32:00,
2013-07-28 11:45:00,54.9,52.0,29.97,SSE,157,7.0,-999.0,91,-99.99,,,0.01,weatherlink.com 1.10,2013-07-28 18:45:00,
2013-07-28 12:00:00,54.9,53.0,29.97,SE,140,3.0,-999.0,92,-99.99,,,0.01,weatherlink.com 1.10,2013-07-28 19:00:00,
2013-07-28 12:15:00,54.9,52.0,29.97,SE,138,4.0,-999.0,91,-99.99,,,0.01,weatherlink.com 1.10,2013-07-28 19:15:00,
2013-07-28 12:32:00,54.5,53.0,29.97,SE,128,5.0,-999.0,93,-99.99,,,0.01,weatherlink.com 1.10,2013-07-28 19:32:00,
2013-07-28 12:45:00,55.1,52.0,29.97,SE,142,5.0,-999.0,89,-99.99,,,0.01,weatherlink.com 1.10,2013-07-28 19:45:00,
2013-07-28 13:00:00,53.9,51.0,29.97,SE,140,1.0,-999.0,91,-99.99,,,0.01,weatherlink.com 1.10,2013-07-28 20:00:00,
2013-07-28 13:15:00,54.1,52.0,29.97,SE,143,4.0,-999.0,91,-99.99,,,0.01,weatherlink.com 1.10,2013-07-28 20:15:00,
2013-07-28 13:32:00,55.6,53.0,29.96,SE,134,3.0,-999.0,89,-99.99,,,0.01,weatherlink.com 1.10,2013-07-28 20:32:00,
2013-07-28 13:45:00,57.8,53.0,29.96,SSE,161,3.0,-999.0,84,-99.99,,,0.01,weatherlink.com 1.10,2013-07-28 20:45:00,
2013-07-28 14:00:00,60.2,55.0,29.96,North,360,1.0,-999.0,82,-99.99,,,0.01,weatherlink.com 1.10,2013-07-28 21:00:00,
2013-07-28 14:15:00,61.0,54.0,29.97,West,274,5.0,-999.0,79,-99.99,,,0.01,weatherlink.com 1.10,2013-07-28 21:15:00,
2013-07-28 14:32:00,61.2,55.0,29.97,North,5,2.0,-999.0,80,-99.99,,,0.01,weatherlink.com 1.10,2013-07-28 21:32:00,
2013-07-28 14:45:00,61.8,55.0,29.96,NW,323,3.0,-999.0,78,-99.99,,,0.01,weatherlink.com 1.10,2013-07-28 21:45:00,
2013-07-28 15:00:00,61.7,55.0,29.96,North,355,4.0,-999.0,79,-99.99,,,0.01,weatherlink.com 1.10,2013-07-28 22:00:00,
2013-07-28 15:15:00,62.2,55.0,29.96,WNW,290,0.0,-999.0,78,-99.99,,,0.01,weatherlink.com 1.10,2013-07-28 22:15:00,
2013-07-28 15:32:00,62.3,55.0,29.97,North,355,1.0,-999.0,77,-99.99,,,0.01,weatherlink.com 1.10,2013-07-28 22:32:00,
2013-07-28 15:45:00,61.9,55.0,29.96,NW,304,2.0,-999.0,79,-99.99,,,0.01,weatherlink.com 1.10,2013-07-28 22:45:00,
2013-07-28 16:00:00,62.2,55.0,29.96,North,5,4.0,-999.0,77,-99.99,,,0.01,weatherlink.com 1.10,2013-07-28 23:00:00,
2013-07-28 16:15:00,62.8,56.0,29.95,NNW,334,5.0,-999.0,77,-99.99,,,0.01,weatherlink.com 1.10,2013-07-28 23:15:00,
2013-07-28 16:32:00,61.8,55.0,29.95,West,279,3.0,-999.0,77,-99.99,,,0.01,weatherlink.com 1.10,2013-07-28 23:32:00,
2013-07-28 16:45:00,61.8,55.0,29.95,WNW,289,5.0,-999.0,77,-99.99,,,0.01,weatherlink.com 1.10,2013-07-28 23:45:00,
2013-07-28 17:00:00,61.4,55.0,29.95,NW,309,4.0,-999.0,78,-99.99,,,0.01,weatherlink.com 1.10,2013-07-29 00:00:00,
2013-07-28 17:15:00,60.8,54.0,29.94,NNE,28,6.0,-999.0,79,-99.99,,,0.01,weatherlink.com 1.10,2013-07-29 00:15:00,
2013-07-28 17:32:00,61.0,54.0,29.94,West,272,4.0,-999.0,79,-99.99,,,0.01,weatherlink.com 1.10,2013-07-29 00:32:00,
2013-07-28 17:45:00,62.1,55.0,29.94,WSW,239,0.0,-999.0,77,-99.99,,,0.01,weatherlink.com 1.10,2013-07-29 00:45:00,
2013-07-28 18:00:00,62.5,55.0,29.94,SE,132,4.0,-999.0,76,-99.99,,,0.01,weatherlink.com 1.10,2013-07-29 01:00:00,
2013-07-28 18:15:00,59.0,53.0,29.93,SSE,166,4.0,-999.0,81,-99.99,,,0.01,weatherlink.com 1.10,2013-07-29 01:15:00,
2013-07-28 18:32:00,56.7,52.0,29.93,SSE,150,7.0,-999.0,85,-99.99,,,0.01,weatherlink.com 1.10,2013-07-29 01:32:00,
2013-07-28 18:45:00,56.8,53.0,29.93,SSE,157,4.0,-999.0,86,-99.99,,,0.01,weatherlink.com 1.10,2013-07-29 01:45:00,
2013-07-28 19:00:00,56.7,53.0,29.94,SE,134,4.0,-999.0,86,-99.99,,,0.01,weatherlink.com 1.10,2013-07-29 02:00:00,
2013-07-28 19:15:00,56.4,53.0,29.94,SSW,195,1.0,-999.0,87,-99.99,,,0.01,weatherlink.com 1.10,2013-07-29 02:15:00,
2013-07-28 19:32:00,56.3,53.0,29.94,SSE,158,3.0,-999.0,87,-99.99,,,0.01,weatherlink.com 1.10,2013-07-29 02:32:00,
2013-07-28 19:45:00,55.5,52.0,29.94,SSE,155,0.0,-999.0,89,-99.99,,,0.01,weatherlink.com 1.10,2013-07-29 02:45:00,
2013-07-28 20:00:00,55.8,53.0,29.93,SSE,158,0.0,-999.0,89,-99.99,,,0.01,weatherlink.com 1.10,2013-07-29 03:00:00,
2013-07-28 20:15:00,56.0,53.0,29.93,SE,137,4.0,-999.0,89,-99.99,,,0.01,weatherlink.com 1.10,2013-07-29 03:15:00,
2013-07-28 20:34:00,55.8,52.0,29.93,ENE,78,0.0,-999.0,88,-99.99,,,0.01,weatherlink.com 1.10,2013-07-29 03:34:00,
2013-07-28 21:01:00,54.9,52.0,29.93,North,350,4.0,-999.0,90,-99.99,,,0.01,weatherlink.com 1.10,2013-07-29 04:01:00,
2013-07-28 21:16:00,54.3,52.0,29.94,NNW,346,0.0,-999.0,91,-99.99,,,0.01,weatherlink.com 1.10,2013-07-29 04:16:00,
2013-07-28 21:32:00,54.2,52.0,29.94,NNW,336,0.0,-999.0,92,-99.99,,,0.01,weatherlink.com 1.10,2013-07-29 04:32:00,
2013-07-28 21:45:00,55.1,53.0,29.95,NNW,333,4.0,-999.0,92,-99.99,,,0.01,weatherlink.com 1.10,2013-07-29 04:45:00,
2013-07-28 22:00:00,55.2,52.0,29.95,NW,321,1.0,-999.0,90,-99.99,,,0.01,weatherlink.com 1.10,2013-07-29 05:00:00,
2013-07-28 22:15:00,54.5,52.0,29.95,NW,321,0.0,-999.0,91,-99.99,,,0.01,weatherlink.com 1.10,2013-07-29 05:15:00,
2013-07-28 22:32:00,54.4,52.0,29.95,WNW,302,0.0,-999.0,91,-99.99,,,0.01,weatherlink.com 1.10,2013-07-29 05:32:00,
2013-07-28 22:45:00,54.0,52.0,29.95,WNW,302,0.0,-999.0,92,-99.99,,,0.01,weatherlink.com 1.10,2013-07-29 05:45:00,
2013-07-28 23:00:00,53.8,52.0,29.96,NNW,329,4.0,-999.0,92,-99.99,,,0.01,weatherlink.com 1.10,2013-07-29 06:00:00,
2013-07-28 23:15:00,53.5,51.0,29.96,NNW,336,0.0,-999.0,92,-99.99,,,0.01,weatherlink.com 1.10,2013-07-29 06:15:00,
2013-07-28 23:33:00,53.3,51.0,29.96,NNW,336,0.0,-999.0,92,-99.99,,,0.01,weatherlink.com 1.10,2013-07-29 06:33:00,
2013-07-28 23:46:00,52.9,51.0,29.96,NNW,334,0.0,-999.0,93,-99.99,,,0.01,weatherlink.com 1.10,2013-07-29 06:46:00,